Tracking 20621 objects as of 31-Mar-2020
HD Live streaming from Space Station
objects crossing your sky now

COSMOS 940

Track COSMOS 940 now!
10-day predictions
COSMOS 940 is classified as:


NORAD ID: 10286
Int'l Code: 1977-079B
Perigee: 1,401.4 km
Apogee: 1,468.2 km
Inclination: 74.0 °
Period: 114.4 minutes
Semi major axis: 7805 km
RCS: 0.703 m2 (medium)
Launch date: August 24, 1977
Source: Commonwealth of Independent States (former USSR) (CIS)
Launch site: PLESETSK MISSILE AND SPACE COMPLEX (PKMTR)
aabbcc
Your satellite tracking list
Your tracking list is empty




NASA's NSSDC Master Catalog

Two Line Element Set (TLE):
1 10286U 77079B   20090.86142979 -.00000027 +00000-0 -63907-4 0  9994
2 10286 074.0223 115.0583 0042732 083.6275 088.8515 12.58857402926755
Source of the keplerian elements: AFSPC